Mankato, MN

1:28 PM CST on November 13, 2019 (GMT -0600)
Mankato Regional

Weather History for KMKT - September, 2019

Change the Weather History Date:

Wednesday, September 4, 2019

  Actual Average Record
Temperature  
Mean Temperature 60 °F -  
Max Temperature 72 °F 75 °F 91 °F (2007)
Min Temperature 50 °F 55 °F 44 °F (2010)
Degree Days  
Heating Degree Days 4    
Growing Degree Days 10 (Base 50)    
Moisture  
Dew Point 52 °F    
Average Humidity 76    
Maximum Humidity 100    
Minimum Humidity 51    
Precipitation  
Precipitation 0.00 in - - ()
Sea Level Pressure  
Sea Level Pressure 30.16 in    
Wind  
Wind Speed 5 mph ()    
Max Wind Speed 8 mph    
Max Gust Speed -    
Visibility 10.0 miles    
Events      
Averages and records for this station are not official NWS values.
T = Trace of Precipitation, MM = Missing Value Source: Averaged Metar Reports

Daily Weather History Graph

Daily Weather History Graph

Search for Another Location

Airport or City:

Astronomy

Sep. 04, 2019 Rise Set
Actual Time 6:41 AM CDT 7:46 PM CDT
Civil Twilight 6:12 AM CDT 8:16 PM CDT
Nautical Twilight 5:36 AM CDT 8:51 PM CDT
Astronomical Twilight 4:59 AM CDT 9:28 PM CDT
Moon 12:57 PM CDT (9/4) 11:07 PM CDT (9/4)
Length of Visible Light 14h 04m
Length of Day
13h 04m
Waxing Crescent, 35% of the Moon is Illuminated
Sep 4
Waxing Crescent
Sep 5
First Quarter
Sep 13
Full
Sep 21
Last Quarter
Sep 28
New

Hourly Weather History & Observations

Time (CDT) Temp. Dew Point Humidity Pressure Visibility Wind Dir Wind Speed Gust Speed Precip Events Conditions
12:56 AM 57.0 °F 55.0 °F 93% 30.09 in 10.0 mi NW 6.9 mph - N/A   Clear
1:56 AM 55.0 °F 54.0 °F 96% 30.09 in 10.0 mi NW 5.8 mph - N/A   Clear
2:56 AM 53.1 °F 51.1 °F 93% 30.10 in 10.0 mi NNW 6.9 mph - N/A   Clear
3:56 AM 52.0 °F 51.1 °F 97% 30.12 in 10.0 mi West 5.8 mph - N/A   Clear
4:56 AM 53.1 °F 51.1 °F 93% 30.14 in 10.0 mi WNW 5.8 mph - N/A   Mostly Cloudy
5:56 AM 51.1 °F 50.0 °F 96% 30.17 in 10.0 mi West 3.5 mph - N/A   Clear
6:56 AM 50.0 °F 50.0 °F 100% 30.20 in 10.0 mi WNW 3.5 mph - N/A   Clear
7:56 AM 53.1 °F 52.0 °F 96% 30.21 in 10.0 mi WNW 4.6 mph - N/A   Clear
8:56 AM 55.9 °F 52.0 °F 87% 30.22 in 10.0 mi NNW 5.8 mph - N/A   Clear
9:56 AM 59.0 °F 48.9 °F 69% 30.22 in 10.0 mi North 8.1 mph - N/A   Clear
10:56 AM 61.0 °F 48.9 °F 64% 30.22 in 10.0 mi NW 3.5 mph - N/A   Clear
11:25 AM 62.6 °F 50.0 °F 63% 30.21 in 10.0 mi Variable 3.5 mph - N/A   Mostly Cloudy
11:53 AM 62.6 °F 50.0 °F 63% 30.22 in 10.0 mi SW 4.6 mph - N/A   Mostly Cloudy
11:56 AM 63.0 °F 50.0 °F 63% 30.22 in 10.0 mi West 5.8 mph - N/A   Mostly Cloudy
12:56 PM 66.0 °F 51.1 °F 59% 30.21 in 10.0 mi WSW 8.1 mph - N/A   Partly Cloudy
1:56 PM 66.0 °F 51.1 °F 59% 30.19 in 10.0 mi Variable 4.6 mph - N/A   Clear
2:56 PM 68.0 °F 52.0 °F 56% 30.17 in 10.0 mi Variable 3.5 mph - N/A   Clear
3:56 PM 70.0 °F 52.0 °F 53% 30.16 in 10.0 mi NNW 3.5 mph - N/A   Clear
4:56 PM 71.1 °F 52.0 °F 51% 30.14 in 10.0 mi NNW 3.5 mph - N/A   Clear
5:56 PM 70.0 °F 53.1 °F 55% 30.13 in 10.0 mi SE 3.5 mph - N/A   Clear
6:56 PM 68.0 °F 53.1 °F 59% 30.14 in 10.0 mi South 4.6 mph - N/A   Clear
7:56 PM 66.0 °F 54.0 °F 65% 30.13 in 10.0 mi SSE 4.6 mph - N/A   Clear
8:56 PM 61.0 °F 55.9 °F 83% 30.14 in 10.0 mi SE 4.6 mph - N/A   Clear
9:56 PM 59.0 °F 55.0 °F 87% 30.14 in 10.0 mi SE 5.8 mph - N/A   Clear
10:56 PM 60.1 °F 55.0 °F 83% 30.13 in 10.0 mi SSE 6.9 mph - N/A   Clear
11:56 PM 59.0 °F 54.0 °F 83% 30.12 in 10.0 mi South 5.8 mph - N/A   Clear